Date String (YYYY-MM-DD hh:mm:ss) UTC,Instrument flags,Ambient pressure (hPa),Sample flow (lpm),Bypass flow (lpm),Sample temperature (°C),Ambient temperature (°C),ASC tube jacket temperature (°C),LED temperature (°C),Box temperature (°C),Sample RH (%),Span deviation,Mass concentration (μg/m³),Mass concentration (μg/m³),Mass concentration (μg/m³)
DateTimeUTC,F1_M11,P_M11,Q1_M11,Q2_M11,T1_M11,T2_M11,T3_M11,T4_M11,T5_M11,U1_M11,ZSPAN_M11,X0_M11,X2_M11,X1_M11
2021-11-17 22:00:00,,0831.2,5.00,0.00,23.4,22.6,00.0,32.5,25.0,09.1,0000.0,0016.73,0004.28,0002.39
2021-11-17 22:01:00,,0831.2,5.00,0.00,23.3,22.6,00.0,32.4,25.1,09.1,0000.0,0016.39,0004.26,0002.35
2021-11-17 22:02:00,,0831.2,4.99,0.00,23.3,22.6,00.0,32.4,25.1,09.1,0000.0,0016.85,0004.25,0002.32
2021-11-17 22:03:00,,0831.2,5.01,0.00,23.3,22.6,00.0,32.4,25.1,09.2,0000.0,0017.23,0004.23,0002.29
2021-11-17 22:04:00,,0831.2,5.00,0.00,23.3,22.6,00.0,32.4,25.1,09.2,0000.0,0016.36,0004.22,0002.26
2021-11-17 22:05:00,,0831.2,5.00,0.00,23.3,22.6,00.0,32.4,25.1,09.1,0000.0,0014.79,0004.19,0002.24
2021-11-17 22:06:00,,0831.3,5.00,0.00,23.3,22.6,00.0,32.4,25.1,09.1,0000.0,0013.70,0004.18,0002.20
2021-11-17 22:07:00,,0831.3,5.00,0.00,23.3,22.6,00.0,32.4,25.0,09.1,0000.0,0014.51,0004.19,0002.19
2021-11-17 22:08:00,,0831.3,5.00,0.00,23.3,22.6,00.0,32.4,25.0,09.2,0000.0,0015.57,0004.22,0002.19
2021-11-17 22:09:00,,0831.2,4.99,0.00,23.3,22.6,00.0,32.4,25.0,09.2,0000.0,0015.55,0004.23,0002.20
2021-11-17 22:10:00,,0831.2,5.01,0.00,23.3,22.6,00.0,32.4,25.0,09.1,0000.0,0015.70,0004.22,0002.21
2021-11-17 22:11:00,,0831.2,4.98,0.00,23.3,22.6,00.0,32.4,25.0,09.1,0000.0,0015.75,0004.26,0002.21
2021-11-17 22:12:00,,0831.3,5.01,0.00,23.3,22.4,00.0,32.4,25.0,09.0,0000.0,0016.48,0004.25,0002.21
2021-11-17 22:13:00,,0831.3,4.99,0.00,23.2,22.5,00.0,32.4,24.9,09.0,0000.0,0016.53,0004.22,0002.22
2021-11-17 22:14:00,,0831.4,5.00,0.00,23.2,22.5,00.0,32.4,24.9,09.1,0000.0,0016.22,0004.21,0002.22
2021-11-17 22:15:00,,0831.4,5.01,0.00,23.2,22.5,00.0,32.3,25.0,09.1,0000.0,0016.69,0004.23,0002.22
2021-11-17 22:16:00,,0831.4,5.02,0.00,23.2,22.5,00.0,32.3,24.9,09.0,0000.0,0017.21,0004.25,0002.20
2021-11-17 22:17:00,,0831.4,4.99,0.00,23.2,22.4,00.0,32.3,24.9,09.0,0000.0,0016.94,0004.20,0002.20
2021-11-17 22:18:00,,0831.5,5.01,0.00,23.2,22.4,00.0,32.3,24.9,09.0,0000.0,0015.82,0004.09,0002.19
2021-11-17 22:19:00,,0831.6,5.00,0.00,23.2,22.4,00.0,32.3,24.9,09.0,0000.0,0015.32,0004.05,0002.19
2021-11-17 22:20:00,,0831.5,5.01,0.00,23.2,22.4,00.0,32.3,24.9,09.0,0000.0,0015.41,0004.02,0002.20
2021-11-17 22:21:00,,0831.5,5.00,0.00,23.1,22.3,00.0,32.3,24.9,09.1,0000.0,0015.79,0004.01,0002.19
2021-11-17 22:22:00,,0831.5,5.00,0.00,23.1,22.3,00.0,32.3,24.8,09.1,0000.0,0016.00,0004.02,0002.19
2021-11-17 22:23:00,,0831.5,5.01,0.00,23.1,22.3,00.0,32.2,24.8,09.0,0000.0,0014.84,0004.08,0002.20
2021-11-17 22:24:00,,0831.5,5.00,0.00,23.1,22.3,00.0,32.2,24.9,09.0,0000.0,0014.13,0004.09,0002.23
2021-11-17 22:25:00,,0831.5,4.99,0.00,23.1,22.3,00.0,32.2,24.9,09.0,0000.0,0014.53,0004.12,0002.24
2021-11-17 22:26:00,,0831.6,5.01,0.00,23.1,22.3,00.0,32.2,24.8,08.9,0000.0,0014.58,0004.05,0002.25
2021-11-17 22:27:00,,0831.5,4.99,0.00,23.1,22.2,00.0,32.2,24.8,08.9,0000.0,0015.34,0004.02,0002.27
2021-11-17 22:28:00,,0831.6,5.01,0.00,23.0,22.2,00.0,32.2,24.7,09.0,0000.0,0016.00,0004.05,0002.27
2021-11-17 22:29:00,,0831.5,5.00,0.00,23.0,22.1,00.0,32.2,24.7,09.0,0000.0,0016.44,0004.12,0002.29
2021-11-17 22:30:00,,0831.5,5.00,0.00,23.0,22.1,00.0,32.2,24.7,09.0,0000.0,0016.21,0004.14,0002.31
2021-11-17 22:31:00,,0831.5,5.00,0.00,23.0,22.1,00.0,32.1,24.7,09.0,0000.0,0015.66,0004.15,0002.30
2021-11-17 22:32:00,,0831.6,5.00,0.00,23.0,22.1,00.0,32.1,24.7,09.1,0000.0,0015.31,0004.15,0002.32
2021-11-17 22:33:00,,0831.6,5.00,0.00,22.9,22.2,00.0,32.1,24.6,09.1,0000.0,0015.18,0004.18,0002.33
2021-11-17 22:34:00,,0831.6,5.01,0.00,22.9,22.2,00.0,32.1,24.7,09.0,0000.0,0016.72,0004.18,0002.33
2021-11-17 22:35:00,,0831.6,5.01,0.00,22.9,22.2,00.0,32.1,24.7,09.1,0000.0,0017.55,0004.24,0002.34
2021-11-17 22:36:00,,0831.6,5.02,0.00,22.9,22.2,00.0,32.1,24.7,09.1,0000.0,0017.87,0004.19,0002.33
2021-11-17 22:37:00,,0831.6,5.00,0.00,22.9,22.2,00.0,32.1,24.6,09.1,0000.0,0017.43,0004.19,0002.34
2021-11-17 22:38:00,,0831.6,5.00,0.00,22.9,22.1,00.0,32.0,24.6,09.1,0000.0,0016.44,0004.20,0002.35
2021-11-17 22:39:00,,0831.6,4.99,0.00,22.9,22.2,00.0,32.0,24.7,09.0,0000.0,0016.25,0004.15,0002.37
2021-11-17 22:40:00,,0831.7,5.02,0.00,22.9,22.1,00.0,32.0,24.7,09.0,0000.0,0016.37,0004.11,0002.35
2021-11-17 22:41:00,,0831.7,4.99,0.00,22.9,22.1,00.0,32.0,24.6,09.0,0000.0,0016.86,0004.06,0002.34
2021-11-17 22:42:00,,0831.7,5.01,0.00,22.9,22.1,00.0,32.0,24.7,09.0,0000.0,0017.52,0004.04,0002.35
2021-11-17 22:43:00,,0831.7,5.01,0.00,22.9,22.2,00.0,32.0,24.6,09.0,0000.0,0017.41,0004.05,0002.34
2021-11-17 22:44:00,,0831.7,5.00,0.00,22.9,22.2,00.0,32.0,24.6,09.1,0000.0,0017.87,0004.06,0002.36
2021-11-17 22:45:00,,0831.7,5.00,0.00,22.9,22.2,00.0,32.0,24.6,09.1,0000.0,0017.61,0004.05,0002.39
2021-11-17 22:46:00,,0831.7,5.00,0.00,22.9,22.2,00.0,32.0,24.6,09.0,0000.0,0017.54,0004.01,0002.40
2021-11-17 22:47:00,,0831.7,4.99,0.00,22.9,22.2,00.0,32.0,24.6,09.1,0000.0,0016.87,0003.98,0002.40
2021-11-17 22:48:00,,0831.7,5.00,0.00,22.9,22.2,00.0,32.0,24.6,09.0,0000.0,0016.29,0004.00,0002.40
2021-11-17 22:49:00,,0831.7,5.00,0.00,22.9,22.2,00.0,32.0,24.6,08.9,0000.0,0016.12,0004.02,0002.41
2021-11-17 22:50:00,,0831.7,5.01,0.00,22.9,22.2,00.0,32.0,24.6,09.0,0000.0,0015.68,0004.05,0002.41
2021-11-17 22:51:00,,0831.8,4.99,0.00,22.9,22.2,00.0,32.0,24.6,09.0,0000.0,0015.22,0004.09,0002.41
2021-11-17 22:52:00,,0831.8,5.01,0.00,22.9,22.2,00.0,32.0,24.6,09.0,0000.0,0014.53,0004.09,0002.42
2021-11-17 22:53:00,,0831.8,5.00,0.00,22.9,22.1,00.0,31.9,24.6,09.0,0000.0,0013.77,0004.03,0002.40
2021-11-17 22:54:00,,0831.7,4.99,0.00,22.8,22.1,00.0,31.9,24.6,08.9,0000.0,0013.08,0004.01,0002.40
2021-11-17 22:55:00,,0831.7,5.00,0.00,22.8,22.1,00.0,31.9,24.6,08.9,0000.0,0012.85,0003.99,0002.38
2021-11-17 22:56:00,,0831.7,5.00,0.00,22.8,22.1,00.0,31.9,24.6,08.8,0000.0,0011.80,0003.95,0002.33
2021-11-17 22:57:00,,0831.7,5.00,0.00,22.8,22.1,00.0,31.9,24.6,08.8,0000.0,0012.28,0003.96,0002.31
2021-11-17 22:58:00,,0831.8,5.00,0.00,22.8,22.1,00.0,31.9,24.6,08.8,0000.0,0012.83,0003.94,0002.28
2021-11-17 22:59:00,,0831.8,5.01,0.00,22.8,22.1,00.0,31.9,24.6,08.9,0000.0,0013.29,0003.90,0002.26
